GW0068 Weather Reports


time (UTC)temp
C
wind
direction
speed
KPH
gust
KPH
rain 1hr
cm
rain 24hr
cm
rain mn
cm
humidity
%
barometer
mb
20260503014021 28 0 0.0 3.2 0.00 0.00 0.00 84 1014.3
20260503013519 28 158 0.0 3.2 0.00 0.00 0.00 84 1014.3
20260503013043 28 236 0.0 6.4 0.00 0.00 0.00 84 1014.3
20260503012520 28 217 1.6 6.4 0.00 0.00 0.00 84 1014.3
20260503012019 28 0 0.0 6.4 0.00 0.00 0.00 84 1014.2
20260503011539 28 212 0.0 6.4 0.00 0.00 0.00 84 1014.2
20260503011020 28 159 0.0 4.8 0.00 0.00 0.00 84 1014.2
20260503010520 28 0 0.0 4.8 0.00 0.00 0.00 84 1014.1
20260503010041 28 212 0.0 8.0 0.00 0.00 0.00 84 1014.0
20260503005522 28 0 0.0 8.0 0.00 0.00 0.00 84 1013.9
20260503005053 28 270 1.6 4.8 0.00 0.00 0.00 84 1013.7
20260503004541 28 215 0.0 4.8 0.00 0.00 0.00 84 1013.7
20260503004023 28 0 0.0 4.8 0.00 0.00 0.00 84 1013.8
20260503003519 28 0 0.0 4.8 0.00 0.00 0.00 84 1013.6
20260503003044 28 193 0.0 4.8 0.00 0.00 0.00 84 1013.5
20260503002519 28 5 0.0 4.8 0.00 0.00 0.00 84 1013.6
20260503002020 28 167 0.0 6.4 0.00 0.00 0.00 84 1013.5
20260503001541 28 90 0.0 6.4 0.00 0.00 0.00 83 1013.4
20260503001019 28 244 0.0 4.8 0.00 0.00 0.00 83 1013.5
20260503000523 28 91 0.0 4.8 0.00 0.00 0.00 83 1013.3
20260503000044 28 0 0.0 3.2 0.00 0.00 0.00 83 1013.3
20260502235519 28 0 0.0 3.2 0.00 0.00 0.00 82 1013.3
20260502235020 28 128 0.0 4.8 0.00 0.00 0.00 82 1013.2
20260502234549 28 176 0.0 8.0 0.00 0.00 0.00 82 1013.3
20260502234020 28 189 0.0 8.0 0.00 0.00 0.00 81 1013.3
20260502233520 28 0 1.6 6.4 0.00 0.00 0.00 81 1013.2
20260502233041 28 0 1.6 8.0 0.00 0.00 0.00 81 1013.1
20260502232524 28 186 1.6 8.0 0.00 0.00 0.00 80 1013.1
20260502232018 29 109 0.0 6.4 0.00 0.00 0.00 80 1013.0
20260502231538 29 225 0.0 8.0 0.00 0.00 0.00 80 1012.9
20260502231021 29 124 1.6 9.7 0.00 0.00 0.00 80 1012.8
20260502230519 29 236 1.6 11.3 0.00 0.00 0.00 80 1012.8
20260502230039 29 207 1.6 11.3 0.00 0.00 0.00 80 1012.6
20260502225520 29 165 3.2 11.3 0.00 0.00 0.00 80 1012.7
20260502225019 30 188 3.2 12.9 0.00 0.00 0.00 80 1012.5
20260502224542 30 192 3.2 12.9 0.00 0.00 0.00 80 1012.5
20260502224020 30 199 1.6 8.0 0.00 0.00 0.00 80 1012.4
20260502223521 30 177 3.2 14.5 0.00 0.00 0.00 80 1012.3
20260502223045 30 212 3.2 14.5 0.00 0.00 0.00 79 1012.4
20260502222521 30 165 3.2 14.5 0.00 0.00 0.00 79 1012.3
20260502222019 30 156 3.2 11.3 0.00 0.00 0.00 79 1012.1
20260502221539 30 261 1.6 11.3 0.00 0.00 0.00 79 1012.1
20260502221019 30 204 4.8 11.3 0.00 0.00 0.00 78 1012.1
20260502220518 30 197 3.2 11.3 0.00 0.00 0.00 78 1012.1
20260502220038 30 228 3.2 11.3 0.00 0.00 0.00 79 1012.2
20260502215519 30 158 3.2 11.3 0.00 0.00 0.00 78 1012.1
20260502215020 30 240 3.2 9.7 0.00 0.00 0.00 78 1012.1
20260502214544 30 184 1.6 9.7 0.00 0.00 0.00 78 1012.1
20260502214020 30 140 1.6 9.7 0.00 0.00 0.00 77 1011.9
20260502213522 31 200 3.2 9.7 0.00 0.00 0.00 77 1012.0
20260502213039 31 163 1.6 9.7 0.00 0.00 0.00 77 1011.9
20260502212523 31 200 1.6 11.3 0.00 0.00 0.00 76 1011.9
20260502212021 31 164 3.2 14.5 0.00 0.00 0.00 76 1011.8
20260502211538 31 87 4.8 16.1 0.00 0.00 0.00 76 1011.9
20260502211024 31 188 4.8 16.1 0.00 0.00 0.00 77 1012.0
20260502210522 31 179 4.8 12.9 0.00 0.00 0.00 78 1012.0
20260502210049 31 0 1.6 11.3 0.00 0.00 0.00 78 1011.9
20260502205522 31 41 3.2 11.3 0.00 0.00 0.00 76 1011.9
20260502205025 31 120 1.6 9.7 0.00 0.00 0.00 76 1011.8
20260502204548 31 15 1.6 9.7 0.00 0.00 0.00 75 1011.8
20260502204022 31 60 1.6 11.3 0.00 0.00 0.00 77 1011.8
20260502203526 31 63 3.2 11.3 0.00 0.00 0.00 76 1011.8
20260502203046 31 173 3.2 8.0 0.00 0.00 0.00 75 1011.8
20260502202522 32 123 1.6 16.1 0.00 0.00 0.00 76 1011.7
20260502202021 31 74 3.2 16.1 0.00 0.00 0.00 76 1011.6
20260502201538 31 110 3.2 12.9 0.00 0.00 0.00 76 1011.6
20260502201023 31 321 3.2 12.9 0.00 0.00 0.00 76 1011.5
20260502200526 31 109 1.6 11.3 0.00 0.00 0.00 76 1011.6
20260502200039 31 323 3.2 11.3 0.00 0.00 0.00 74 1011.6
20260502195523 32 188 1.6 11.3 0.00 0.00 0.00 74 1011.6
20260502195022 31 222 1.6 16.1 0.00 0.00 0.00 77 1011.6
20260502194538 31 254 3.2 16.1 0.00 0.00 0.00 74 1011.7
20260502194023 31 20 3.2 9.7 0.00 0.00 0.00 75 1011.6
20260502193522 31 115 1.6 9.7 0.00 0.00 0.00 76 1011.6
20260502193040 31 339 3.2 11.3 0.00 0.00 0.00 76 1011.6
20260502192523 31 218 3.2 11.3 0.00 0.00 0.00 75 1011.7
20260502192022 31 49 3.2 11.3 0.00 0.00 0.00 76 1011.7
20260502191542 31 276 1.6 9.7 0.00 0.00 0.00 77 1011.8
20260502191028 31 212 1.6 14.5 0.00 0.00 0.00 77 1012.0
20260502190522 31 0 3.2 14.5 0.00 0.00 0.00 76 1011.9
20260502190043 31 257 3.2 14.5 0.00 0.00 0.00 76 1012.1
20260502185522 32 155 3.2 14.5 0.00 0.00 0.00 74 1012.2
20260502185021 32 142 1.6 14.5 0.00 0.00 0.00 75 1012.3
20260502184540 32 47 4.8 14.5 0.00 0.00 0.00 74 1012.3
20260502184022 31 269 3.2 11.3 0.00 0.00 0.00 77 1012.5
20260502183522 32 34 3.2 11.3 0.00 0.00 0.00 73 1012.5
20260502183035 32 215 1.6 11.3 0.00 0.00 0.00 73 1012.6
20260502182538 32 209 3.2 14.5 0.00 0.00 0.00 76 1012.7
20260502182022 31 137 3.2 14.5 0.00 0.00 0.00 75 1012.6
20260502181545 31 101 4.8 12.9 0.00 0.00 0.00 75 1012.8
20260502181022 31 180 1.6 11.3 0.00 0.00 0.00 75 1012.9
20260502180524 31 281 1.6 12.9 0.00 0.00 0.00 75 1012.8
20260502164022 31 131 4.8 11.3 0.00 0.00 0.00 77 1013.6
20260502163522 31 0 1.6 11.3 0.00 0.00 0.00 79 1013.6
20260502163048 31 251 1.6 9.7 0.00 0.00 0.00 80 1013.6
20260502162522 30 80 1.6 11.3 0.00 0.00 0.00 78 1013.7
20260502162023 31 5 1.6 11.3 0.00 0.00 0.00 77 1013.5
20260502161538 31 55 4.8 11.3 0.00 0.00 0.00 78 1013.6
20260502161021 31 94 3.2 9.7 0.00 0.00 0.00 78 1013.5
20260502160525 31 163 0.0 9.7 0.00 0.00 0.00 79 1013.6
20260502152021 30 0 1.6 8.0 0.00 0.00 0.00 79 1013.9
20260502151552 30 67 1.6 8.0 0.00 0.00 0.00 80 1014.0
20260502151021 30 128 1.6 9.7 0.00 0.00 0.00 81 1013.9
20260502150521 30 0 1.6 9.7 0.00 0.00 0.00 80 1014.1
20260502130521 28 0 3.2 14.5 0.00 0.00 0.00 84 1013.5
20260502123522 27 157 1.6 11.3 0.00 0.00 0.00 86 1013.4
20260502123048 27 0 1.6 12.9 0.00 0.00 0.00 86 1013.3
20260502122525 27 104 3.2 12.9 0.00 0.00 0.00 87 1013.3
20260502122025 27 63 1.6 12.9 0.00 0.00 0.00 88 1013.3
20260502121538 27 0 1.6 12.9 0.00 0.00 0.00 89 1013.3
20260502121019 27 51 1.6 12.9 0.00 0.00 0.00 89 1013.2
20260502120524 27 0 0.0 9.7 0.00 0.00 0.00 90 1013.1
20260502115523 26 0 0.0 9.7 0.00 0.00 0.00 92 1013.0
20260502115021 26 124 0.0 3.2 0.00 0.00 0.00 92 1013.0
20260502114541 26 0 0.0 4.8 0.00 0.00 0.00 93 1012.9
20260502114022 26 61 0.0 6.4 0.00 0.00 0.00 93 1012.9
20260502113522 25 0 1.6 6.4 0.00 0.00 0.00 93 1012.9
20260502113039 25 0 0.0 1.6 0.00 0.00 0.00 94 1012.8
20260502112521 25 0 0.0 1.6 0.00 0.00 0.00 94 1012.8
20260502112019 25 73 0.0 1.6 0.00 0.00 0.00 94 1012.8
20260502111540 25 0 0.0 1.6 0.00 0.00 0.00 94 1012.7
20260502111019 25 73 0.0 0.0 0.00 0.00 0.00 94 1012.7
20260502110519 25 0 0.0 0.0 0.00 0.00 0.00 94 1012.7
20260502110039 25 0 0.0 0.0 0.00 0.00 0.00 94 1012.6
20260502105524 25 0 0.0 0.0 0.00 0.00 0.00 94 1012.6
20260502105020 25 0 0.0 0.0 0.00 0.00 0.00 94 1012.6
20260502104538 24 0 0.0 0.0 0.00 0.00 0.00 94 1012.6
20260502104019 24 0 0.0 0.0 0.00 0.00 0.00 94 1012.5
20260502103523 24 0 0.0 0.0 0.00 0.00 0.00 94 1012.5
20260502103038 24 0 0.0 0.0 0.00 0.00 0.00 94 1012.5
20260502102524 24 0 0.0 0.0 0.00 0.00 0.00 94 1012.4
20260502102022 24 0 0.0 0.0 0.00 0.00 0.00 94 1012.3
20260502101548 24 0 0.0 0.0 0.00 0.00 0.00 94 1012.3
20260502101019 24 0 0.0 0.0 0.00 0.00 0.00 94 1012.3
20260502100519 24 0 0.0 0.0 0.00 0.00 0.00 94 1012.2
20260502091534 24 0 0.0 0.0 0.00 0.00 0.00 92 1011.9
20260502091020 24 0 0.0 0.0 0.00 0.00 0.00 92 1011.9
20260502090517 24 0 0.0 0.0 0.00 0.00 0.00 92 1011.9
20260502071019 26 0 0.0 3.2 0.00 0.00 0.00 89 1012.2
20260502070521 26 0 0.0 1.6 0.00 0.00 0.00 88 1012.2
20260502070045 26 0 0.0 3.2 0.00 0.00 0.00 88 1012.3
20260502065519 26 0 0.0 3.2 0.00 0.00 0.00 88 1012.3
20260502065021 26 0 0.0 1.6 0.00 0.00 0.00 88 1012.3
20260502064534 26 0 0.0 1.6 0.00 0.00 0.00 88 1012.2
20260502064025 26 0 0.0 1.6 0.00 0.00 0.00 88 1012.2
20260502063523 26 0 0.0 1.6 0.00 0.00 0.00 88 1012.3
20260502063041 26 0 0.0 3.2 0.00 0.00 0.00 88 1012.4
20260502062522 26 0 0.0 3.2 0.00 0.00 0.00 88 1012.4
20260502062017 26 0 0.0 4.8 0.00 0.00 0.00 88 1012.4
20260502061541 26 0 0.0 4.8 0.00 0.00 0.00 87 1012.5
20260502061020 26 55 1.6 4.8 0.00 0.00 0.00 87 1012.5
20260502060519 26 55 0.0 4.8 0.00 0.00 0.00 87 1012.4
20260502060038 26 0 0.0 3.2 0.00 0.00 0.00 87 1012.5
20260502055519 26 0 0.0 3.2 0.00 0.00 0.00 87 1012.6
20260502055020 26 0 0.0 3.2 0.00 0.00 0.00 87 1012.7
20260502054539 26 85 0.0 3.2 0.00 0.00 0.00 87 1012.8
20260502054023 26 0 0.0 3.2 0.00 0.00 0.00 87 1012.9
20260502053520 27 0 0.0 9.7 0.00 0.00 0.00 87 1012.8
20260502053037 26 0 0.0 9.7 0.00 0.00 0.00 87 1012.8
20260502052522 27 89 1.6 9.7 0.00 0.00 0.00 87 1013.0
20260502052018 27 0 0.0 3.2 0.00 0.00 0.00 87 1013.0
20260502051533 27 74 0.0 9.7 0.00 0.00 0.00 87 1013.1
20260502051023 27 58 0.0 9.7 0.00 0.00 0.00 87 1013.1
20260502050526 27 57 0.0 4.8 0.00 0.00 0.00 86 1013.1
20260502050039 27 69 1.6 6.4 0.00 0.00 0.00 86 1013.4
20260502045519 27 0 0.0 6.4 0.00 0.00 0.00 86 1013.3
20260502045020 27 0 1.6 6.4 0.00 0.00 0.00 86 1013.4
20260502044538 27 81 0.0 8.0 0.00 0.00 0.00 86 1013.4
20260502044018 27 98 0.0 8.0 0.00 0.00 0.00 86 1013.5
20260502043519 27 0 0.0 8.0 0.00 0.00 0.00 86 1013.5
20260502043039 27 74 0.0 4.8 0.00 0.00 0.00 86 1013.6
20260502042521 27 0 0.0 3.2 0.00 0.00 0.00 86 1013.6
20260502042022 27 62 0.0 3.2 0.00 0.00 0.00 86 1013.5
20260502041539 27 64 0.0 3.2 0.00 0.00 0.00 86 1013.5
20260502041019 27 0 0.0 3.2 0.00 0.00 0.00 86 1013.6
20260502040523 27 57 0.0 3.2 0.00 0.00 0.00 86 1013.6
20260502040039 27 67 0.0 4.8 0.00 0.00 0.00 86 1013.6
20260502035518 27 40 0.0 4.8 0.00 0.00 0.00 86 1013.6
20260502035023 27 25 0.0 6.4 0.00 0.00 0.00 85 1013.7
20260502034534 27 88 0.0 6.4 0.00 0.00 0.00 86 1013.6
20260502034018 27 0 0.0 4.8 0.00 0.00 0.00 85 1013.5
20260502033519 27 88 0.0 6.4 0.00 0.00 0.00 86 1013.5
20260502033041 27 193 0.0 6.4 0.00 0.00 0.00 86 1013.5
20260502032520 27 0 0.0 6.4 0.00 0.00 0.00 86 1013.5
20260502032025 27 0 0.0 3.2 0.00 0.00 0.00 86 1013.4
20260502031540 27 0 0.0 4.8 0.00 0.00 0.00 86 1013.4
20260502031020 27 360 0.0 4.8 0.00 0.00 0.00 86 1013.3
20260502030518 27 74 0.0 4.8 0.00 0.00 0.00 85 1013.4
20260502030039 27 0 0.0 4.8 0.00 0.00 0.00 85 1013.3
20260502025518 27 0 0.0 4.8 0.00 0.00 0.00 85 1013.2
20260502025019 27 66 0.0 4.8 0.00 0.00 0.00 85 1013.1
20260502024534 27 0 0.0 4.8 0.00 0.00 0.00 85 1013.2
20260502024020 27 49 0.0 6.4 0.00 0.00 0.00 85 1013.0
20260502023521 27 0 0.0 6.4 0.00 0.00 0.00 85 1013.1
20260502023040 27 0 1.6 4.8 0.00 0.00 0.00 85 1012.9
20260502022520 27 120 0.0 8.0 0.00 0.00 0.00 85 1012.9
20260502022018 27 76 1.6 8.0 0.00 0.00 0.00 84 1012.8
20260502021541 27 80 0.0 6.4 0.00 0.00 0.00 84 1012.7
20260502021023 27 0 1.6 6.4 0.00 0.00 0.00 84 1012.7
20260502020521 27 0 0.0 4.8 0.00 0.00 0.00 84 1012.5
20260502020040 27 70 0.0 4.8 0.00 0.00 0.00 84 1012.6
20260502015518 27 0 0.0 6.4 0.00 0.00 0.00 83 1012.4
20260502015021 27 0 1.6 6.4 0.00 0.00 0.00 83 1012.4
20260502014539 27 0 0.0 3.2 0.00 0.00 0.00 83 1012.3